USA 167

Last updated on Tue Oct 28 2025 00:02:46 GMT+0000 (Coordinated Universal Time)

1 27691U 03008A 25300.44691192 .00000019 00000+0 00000+0 0 9990 2 27691 10.4965 45.4394 0003228 247.7545 141.6799 1.00272531 4440
UTC large
Height (km)
Speed (km/s)
/
Latitude / Longitude
Inclination (degrees)
Orbital Period (minutes)
Azimuth
Elevation
Range (km)
Doppler Factor

Next 0 passes for location: London (51.5072 / 0.1276)

Sorry there are no passes over London.